| time (UTC) | temp F | wind direction | speed knots | gust knots | rain 1hr in | rain 24hr in | rain mn in | humidity % | barometer mb |
| 20260504081719 | 0 | 0.0 | 0.0 | 0.00 | 0.00 | 0.00 | 1015.9 | ||
| 20260504081114 | 0 | 0.0 | 0.0 | 0.00 | 0.00 | 0.00 | 1015.8 | ||
| 20260504080524 | 0 | 0.0 | 0.0 | 0.00 | 0.00 | 0.00 | 1015.8 | ||
| 20260504050518 | 47 | 44 | 0.9 | 2.6 | 0.00 | 0.00 | 0.00 | 61 | 1016.0 |
| 20260504045921 | 47 | 62 | 1.7 | 3.5 | 0.00 | 0.00 | 0.00 | 62 | 1016.0 |
| 20260504045314 | 47 | 52 | 0.9 | 3.5 | 0.00 | 0.00 | 0.00 | 62 | 1016.0 |
| 20260504044724 | 47 | 0 | 0.0 | 3.5 | 0.00 | 0.00 | 0.00 | 62 | 1016.0 |
| 20260504044114 | 47 | 51 | 0.9 | 3.5 | 0.00 | 0.00 | 0.00 | 62 | 1016.0 |
| 20260504043513 | 47 | 52 | 0.9 | 1.7 | 0.00 | 0.00 | 0.00 | 63 | 1015.9 |
| 20260504042917 | 47 | 49 | 0.9 | 1.7 | 0.00 | 0.00 | 0.00 | 62 | 1015.8 |
| 20260504042317 | 47 | 0 | 0.0 | 0.0 | 0.00 | 0.00 | 0.00 | 63 | 1015.8 |
| 20260504041714 | 47 | 0 | 0.0 | 2.6 | 0.00 | 0.00 | 0.00 | 62 | 1015.7 |
| 20260504041114 | 47 | 0 | 0.0 | 2.6 | 0.00 | 0.00 | 0.00 | 62 | 1015.7 |
| 20260504040519 | 47 | 67 | 0.9 | 2.6 | 0.00 | 0.00 | 0.00 | 61 | 1015.6 |
| 20260504035921 | 48 | 68 | 0.9 | 3.5 | 0.00 | 0.00 | 0.00 | 61 | 1015.6 |
| 20260504035317 | 48 | 74 | 1.7 | 4.3 | 0.00 | 0.00 | 0.00 | 60 | 1015.7 |
| 20260504034722 | 48 | 73 | 1.7 | 4.3 | 0.00 | 0.00 | 0.00 | 60 | 1015.6 |
| 20260504034114 | 48 | 71 | 1.7 | 4.3 | 0.00 | 0.00 | 0.00 | 60 | 1015.6 |
| 20260504033517 | 48 | 74 | 2.6 | 4.3 | 0.00 | 0.00 | 0.00 | 60 | 1015.6 |
| 20260504032919 | 48 | 72 | 1.7 | 4.3 | 0.00 | 0.00 | 0.00 | 60 | 1015.5 |
| 20260504032317 | 48 | 73 | 1.7 | 4.3 | 0.00 | 0.00 | 0.00 | 59 | 1015.4 |
| 20260504031720 | 48 | 79 | 2.6 | 4.3 | 0.00 | 0.00 | 0.00 | 59 | 1015.3 |
| 20260504031114 | 48 | 63 | 0.9 | 2.6 | 0.00 | 0.00 | 0.00 | 60 | 1015.3 |
| 20260504030519 | 48 | 67 | 0.9 | 3.5 | 0.00 | 0.00 | 0.00 | 59 | 1015.3 |
| 20260504025919 | 49 | 69 | 0.9 | 4.3 | 0.00 | 0.00 | 0.00 | 58 | 1015.3 |
| 20260504025317 | 49 | 72 | 1.7 | 3.5 | 0.00 | 0.00 | 0.00 | 57 | 1015.2 |
| 20260504024725 | 49 | 59 | 0.9 | 2.6 | 0.00 | 0.00 | 0.00 | 58 | 1015.2 |
| 20260504024113 | 49 | 63 | 1.7 | 2.6 | 0.00 | 0.00 | 0.00 | 57 | 1015.2 |
| 20260504023513 | 50 | 63 | 0.9 | 3.5 | 0.00 | 0.00 | 0.00 | 56 | 1015.3 |
| 20260504022915 | 50 | 66 | 0.9 | 2.6 | 0.00 | 0.00 | 0.00 | 56 | 1015.3 |
| 20260504022315 | 50 | 68 | 1.7 | 3.5 | 0.00 | 0.00 | 0.00 | 54 | 1015.4 |
| 20260504021720 | 51 | 70 | 1.7 | 4.3 | 0.00 | 0.00 | 0.00 | 53 | 1015.4 |
| 20260504021114 | 51 | 74 | 2.6 | 4.3 | 0.00 | 0.00 | 0.00 | 53 | 1015.3 |
| 20260504020520 | 51 | 71 | 0.9 | 3.5 | 0.00 | 0.00 | 0.00 | 54 | 1015.4 |
| 20260504015920 | 51 | 71 | 1.7 | 3.5 | 0.00 | 0.00 | 0.00 | 52 | 1015.4 |
| 20260504015316 | 51 | 68 | 1.7 | 4.3 | 0.00 | 0.00 | 0.00 | 52 | 1015.3 |
| 20260504014726 | 51 | 72 | 1.7 | 3.5 | 0.00 | 0.00 | 0.00 | 52 | 1015.2 |
| 20260504014124 | 52 | 74 | 2.6 | 3.5 | 0.00 | 0.00 | 0.00 | 51 | 1015.1 |
| 20260504013518 | 52 | 66 | 1.7 | 2.6 | 0.00 | 0.00 | 0.00 | 51 | 1015.1 |
| 20260504012918 | 51 | 63 | 0.9 | 2.6 | 0.00 | 0.00 | 0.00 | 52 | 1015.0 |
| 20260504012313 | 52 | 0 | 0.0 | 0.0 | 0.00 | 0.00 | 0.00 | 53 | 1015.0 |
| 20260504011716 | 52 | 0 | 0.0 | 1.7 | 0.00 | 0.00 | 0.00 | 53 | 1015.0 |
| 20260504011119 | 52 | 0 | 0.0 | 1.7 | 0.00 | 0.00 | 0.00 | 50 | 1014.9 |
| 20260504010518 | 53 | 64 | 0.9 | 3.5 | 0.00 | 0.00 | 0.00 | 49 | 1014.9 |
| 20260504005920 | 53 | 65 | 0.9 | 1.7 | 0.00 | 0.00 | 0.00 | 50 | 1014.8 |
| 20260504005314 | 53 | 69 | 0.9 | 5.2 | 0.00 | 0.00 | 0.00 | 49 | 1014.8 |
| 20260504004715 | 54 | 75 | 1.7 | 6.1 | 0.00 | 0.00 | 0.00 | 48 | 1014.8 |
| 20260504004113 | 54 | 78 | 2.6 | 7.0 | 0.00 | 0.00 | 0.00 | 47 | 1014.7 |
| 20260504003518 | 54 | 79 | 2.6 | 5.2 | 0.00 | 0.00 | 0.00 | 47 | 1014.6 |
| 20260504002916 | 54 | 76 | 1.7 | 5.2 | 0.00 | 0.00 | 0.00 | 46 | 1014.5 |
| 20260504002313 | 55 | 78 | 1.7 | 5.2 | 0.00 | 0.00 | 0.00 | 46 | 1014.4 |
| 20260504001717 | 55 | 72 | 1.7 | 4.3 | 0.00 | 0.00 | 0.00 | 45 | 1014.3 |
| 20260504001114 | 56 | 85 | 2.6 | 6.1 | 0.00 | 0.00 | 0.00 | 44 | 1014.3 |
| 20260504000521 | 56 | 85 | 3.5 | 6.1 | 0.00 | 0.00 | 0.00 | 43 | 1014.2 |
| 20260503235927 | 56 | 85 | 2.6 | 7.8 | 0.00 | 0.00 | 0.00 | 42 | 1014.1 |
| 20260503235314 | 57 | 79 | 2.6 | 7.0 | 0.00 | 0.00 | 0.00 | 42 | 1014.0 |
| 20260503234724 | 57 | 82 | 2.6 | 7.8 | 0.00 | 0.00 | 0.00 | 42 | 1014.0 |
| 20260503234114 | 58 | 72 | 0.9 | 8.7 | 0.00 | 0.00 | 0.00 | 41 | 1013.9 |
| 20260503233519 | 58 | 89 | 2.6 | 8.7 | 0.00 | 0.00 | 0.00 | 40 | 1013.9 |
| 20260503232916 | 58 | 92 | 3.5 | 8.7 | 0.00 | 0.00 | 0.00 | 40 | 1013.9 |
| 20260503232314 | 58 | 97 | 1.7 | 11.3 | 0.00 | 0.00 | 0.00 | 40 | 1013.9 |
| 20260503231714 | 58 | 95 | 4.3 | 13.9 | 0.00 | 0.00 | 0.00 | 40 | 1013.9 |
| 20260503231120 | 58 | 97 | 2.6 | 8.7 | 0.00 | 0.00 | 0.00 | 40 | 1013.9 |
| 20260503230519 | 58 | 108 | 3.5 | 12.2 | 0.00 | 0.00 | 0.00 | 40 | 1013.9 |
| 20260503225918 | 58 | 94 | 4.3 | 13.0 | 0.00 | 0.00 | 0.00 | 39 | 1013.8 |
| 20260503225313 | 59 | 96 | 5.2 | 13.9 | 0.00 | 0.00 | 0.00 | 39 | 1013.7 |
| 20260503224721 | 59 | 98 | 7.8 | 13.9 | 0.00 | 0.00 | 0.00 | 39 | 1013.8 |
| 20260503224114 | 59 | 124 | 5.2 | 9.6 | 0.00 | 0.00 | 0.00 | 38 | 1013.8 |
| 20260503223513 | 59 | 97 | 4.3 | 12.2 | 0.00 | 0.00 | 0.00 | 39 | 1013.8 |
| 20260503222914 | 60 | 92 | 5.2 | 12.2 | 0.00 | 0.00 | 0.00 | 39 | 1013.8 |
| 20260503222314 | 60 | 116 | 4.3 | 10.4 | 0.00 | 0.00 | 0.00 | 39 | 1013.8 |
| 20260503221713 | 60 | 120 | 3.5 | 16.5 | 0.00 | 0.00 | 0.00 | 39 | 1013.8 |
| 20260503221113 | 60 | 102 | 5.2 | 13.0 | 0.00 | 0.00 | 0.00 | 38 | 1013.8 |
| 20260503220515 | 60 | 105 | 5.2 | 11.3 | 0.00 | 0.00 | 0.00 | 38 | 1013.8 |
| 20260503215916 | 60 | 153 | 5.2 | 11.3 | 0.00 | 0.00 | 0.00 | 38 | 1013.8 |
| 20260503215313 | 59 | 157 | 4.3 | 13.9 | 0.00 | 0.00 | 0.00 | 39 | 1013.8 |
| 20260503214722 | 59 | 97 | 7.8 | 13.9 | 0.00 | 0.00 | 0.00 | 38 | 1013.8 |
| 20260503214113 | 59 | 96 | 7.8 | 15.6 | 0.00 | 0.00 | 0.00 | 39 | 1013.8 |
| 20260503213528 | 59 | 119 | 7.0 | 15.6 | 0.00 | 0.00 | 0.00 | 39 | 1013.8 |
| 20260503212915 | 58 | 89 | 3.5 | 13.9 | 0.00 | 0.00 | 0.00 | 39 | 1013.8 |
| 20260503212327 | 59 | 101 | 7.0 | 19.1 | 0.00 | 0.00 | 0.00 | 39 | 1013.8 |
| 20260503211713 | 60 | 111 | 7.0 | 17.4 | 0.00 | 0.00 | 0.00 | 39 | 1013.7 |
| 20260503211115 | 59 | 170 | 7.0 | 12.2 | 0.00 | 0.00 | 0.00 | 38 | 1013.6 |
| 20260503210519 | 59 | 88 | 4.3 | 13.0 | 0.00 | 0.00 | 0.00 | 39 | 1013.7 |
| 20260503205919 | 59 | 122 | 4.3 | 13.0 | 0.00 | 0.00 | 0.00 | 39 | 1013.8 |
| 20260503205315 | 59 | 112 | 4.3 | 11.3 | 0.00 | 0.00 | 0.00 | 39 | 1013.8 |
| 20260503204713 | 59 | 136 | 4.3 | 12.2 | 0.00 | 0.00 | 0.00 | 37 | 1013.8 |
| 20260503204113 | 59 | 160 | 7.0 | 12.2 | 0.00 | 0.00 | 0.00 | 38 | 1013.8 |
| 20260503203520 | 59 | 145 | 5.2 | 18.2 | 0.00 | 0.00 | 0.00 | 40 | 1013.9 |
| 20260503202923 | 59 | 118 | 7.0 | 20.0 | 0.00 | 0.00 | 0.00 | 38 | 1013.9 |
| 20260503202313 | 58 | 94 | 7.0 | 16.5 | 0.00 | 0.00 | 0.00 | 41 | 1013.9 |
| 20260503201715 | 58 | 171 | 7.8 | 16.5 | 0.00 | 0.00 | 0.00 | 37 | 1014.0 |
| 20260503201114 | 59 | 134 | 6.1 | 13.9 | 0.00 | 0.00 | 0.00 | 38 | 1014.1 |
| 20260503200518 | 58 | 112 | 6.1 | 13.9 | 0.00 | 0.00 | 0.00 | 39 | 1014.2 |
| 20260503195921 | 58 | 129 | 7.0 | 14.8 | 0.00 | 0.00 | 0.00 | 37 | 1014.2 |
| 20260503195313 | 59 | 135 | 7.0 | 14.8 | 0.00 | 0.00 | 0.00 | 37 | 1014.3 |
| 20260503194719 | 58 | 125 | 6.1 | 14.8 | 0.00 | 0.00 | 0.00 | 39 | 1014.3 |
| 20260503194114 | 58 | 106 | 4.3 | 14.8 | 0.00 | 0.00 | 0.00 | 41 | 1014.3 |
| 20260503193515 | 58 | 152 | 7.8 | 14.8 | 0.00 | 0.00 | 0.00 | 36 | 1014.6 |
| 20260503192913 | 58 | 96 | 8.7 | 14.8 | 0.00 | 0.00 | 0.00 | 40 | 1014.6 |
| 20260503192314 | 57 | 132 | 7.0 | 14.8 | 0.00 | 0.00 | 0.00 | 38 | 1014.7 |
| 20260503191713 | 57 | 101 | 7.8 | 17.4 | 0.00 | 0.00 | 0.00 | 41 | 1014.8 |
| 20260503191114 | 57 | 123 | 6.1 | 17.4 | 0.00 | 0.00 | 0.00 | 40 | 1014.9 |
| 20260503190515 | 57 | 167 | 7.0 | 16.5 | 0.00 | 0.00 | 0.00 | 41 | 1014.8 |
| 20260503185914 | 57 | 144 | 7.0 | 17.4 | 0.00 | 0.00 | 0.00 | 40 | 1014.9 |
| 20260503185313 | 56 | 153 | 7.0 | 16.5 | 0.00 | 0.00 | 0.00 | 43 | 1015.0 |
| 20260503184723 | 56 | 168 | 7.8 | 16.5 | 0.00 | 0.00 | 0.00 | 39 | 1015.1 |
| 20260503184113 | 56 | 107 | 7.8 | 13.9 | 0.00 | 0.00 | 0.00 | 43 | 1015.1 |
| 20260503183519 | 56 | 118 | 8.7 | 16.5 | 0.00 | 0.00 | 0.00 | 42 | 1015.2 |
| 20260503182919 | 55 | 136 | 7.0 | 18.2 | 0.00 | 0.00 | 0.00 | 43 | 1015.3 |
| 20260503182316 | 55 | 122 | 6.1 | 14.8 | 0.00 | 0.00 | 0.00 | 44 | 1015.3 |
| 20260503181723 | 55 | 152 | 7.8 | 14.8 | 0.00 | 0.00 | 0.00 | 40 | 1015.2 |
| 20260503181115 | 56 | 145 | 7.8 | 12.2 | 0.00 | 0.00 | 0.00 | 41 | 1015.3 |
| 20260503180528 | 55 | 152 | 6.1 | 13.0 | 0.00 | 0.00 | 0.00 | 41 | 1015.3 |
| 20260503175913 | 55 | 115 | 7.8 | 16.5 | 0.00 | 0.00 | 0.00 | 44 | 1015.4 |
| 20260503175315 | 54 | 113 | 6.1 | 17.4 | 0.00 | 0.00 | 0.00 | 43 | 1015.4 |
| 20260503174713 | 54 | 166 | 7.8 | 17.4 | 0.00 | 0.00 | 0.00 | 42 | 1015.4 |
| 20260503174113 | 54 | 143 | 4.3 | 15.6 | 0.00 | 0.00 | 0.00 | 44 | 1015.4 |
| 20260503173518 | 54 | 174 | 7.0 | 15.6 | 0.00 | 0.00 | 0.00 | 42 | 1015.5 |
| 20260503172913 | 54 | 144 | 5.2 | 13.9 | 0.00 | 0.00 | 0.00 | 44 | 1015.5 |
| 20260503172313 | 53 | 153 | 6.1 | 13.9 | 0.00 | 0.00 | 0.00 | 42 | 1015.5 |
| 20260503171717 | 53 | 146 | 6.1 | 11.3 | 0.00 | 0.00 | 0.00 | 41 | 1015.6 |
| 20260503171120 | 53 | 195 | 4.3 | 15.6 | 0.00 | 0.00 | 0.00 | 42 | 1015.6 |
| 20260503170515 | 53 | 150 | 7.0 | 15.6 | 0.00 | 0.00 | 0.00 | 43 | 1015.7 |
| 20260503150519 | 49 | 156 | 9.6 | 14.8 | 0.00 | 0.00 | 0.00 | 51 | 1016.6 |
| 20260503131114 | 45 | 168 | 3.5 | 13.0 | 0.00 | 0.00 | 0.00 | 64 | 1016.6 |
| 20260503130524 | 45 | 148 | 7.0 | 13.0 | 0.00 | 0.00 | 0.00 | 63 | 1016.5 |
| 20260503110514 | 42 | 246 | 0.9 | 4.3 | 0.00 | 0.00 | 0.00 | 74 | 1015.6 |